Satellite: OKEAN-4
Catalog number: 23317
Epoch time:      09140.83530372
Element set:    0914
Inclination:      082.5397 deg
RA of node:       000.0148 deg
Eccentricity:    0.0023929
Arg of perigee:   093.6042 deg
Mean anomaly:     266.7907 deg
Mean motion:   14.82695878 rev/day
Decay rate:       -3.3e-07 rev/day^2
Epoch rev:           78831
Checksum:              315

Satellite: NOAA-14
Catalog number: 23455
Epoch time:      09141.63095039
Element set:     624
Inclination:      098.9095 deg
RA of node:       219.3992 deg
Eccentricity:    0.0008612
Arg of perigee:   266.2601 deg
Mean anomaly:     093.8063 deg
Mean motion:   14.13762998 rev/day
Decay rate:       -1.1e-07 rev/day^2
Epoch rev:           74226
Checksum:              315

Satellite: NOAA-15
Catalog number: 25338
Epoch time:      09140.80490504
Element set:    0931
Inclination:      098.5823 deg
RA of node:       130.6147 deg
Eccentricity:    0.0011501
Arg of perigee:   134.2497 deg
Mean anomaly:     225.9624 deg
Mean motion:   14.24759831 rev/day
Decay rate:        2.0e-08 rev/day^2
Epoch rev:           57287
Checksum:              296

Satellite: RESURS
Catalog number: 25394
Epoch time:      09140.69012966
Element set:    0220
Inclination:      098.3411 deg
RA of node:       174.4343 deg
Eccentricity:    0.0001132
Arg of perigee:   337.1069 deg
Mean anomaly:     023.0059 deg
Mean motion:   14.24182840 rev/day
Decay rate:       -5.0e-08 rev/day^2
Epoch rev:           56448
Checksum:              265

Satellite: FENGYUN1
Catalog number: 25730
Epoch time:      09140.92202509
Element set:    0793
Inclination:      098.7547 deg
RA of node:       111.9037 deg
Eccentricity:    0.0020916
Arg of perigee:   301.1996 deg
Mean anomaly:     058.7123 deg
Mean motion:   14.07947033 rev/day
Decay rate:      -6.71e-06 rev/day^2
Epoch rev:           51648
Checksum:              301

Satellite: OKEAN-0
Catalog number: 25860
Epoch time:      09140.87435773
Element set:     681
Inclination:      097.7844 deg
RA of node:       123.1437 deg
Eccentricity:    0.0000568
Arg of perigee:   070.5475 deg
Mean anomaly:     289.5798 deg
Mean motion:   14.73573269 rev/day
Decay rate:        4.3e-07 rev/day^2
Epoch rev:           52912
Checksum:              333

Satellite: NOAA-16
Catalog number: 26536
Epoch time:      09140.80858046
Element set:    0408
Inclination:      099.1755 deg
RA of node:       143.8134 deg
Eccentricity:    0.0010339
Arg of perigee:   003.7917 deg
Mean anomaly:     356.3310 deg
Mean motion:   14.12517157 rev/day
Decay rate:      -2.36e-06 rev/day^2
Epoch rev:           44643
Checksum:              295

Satellite: NOAA-17
Catalog number: 27453
Epoch time:      09140.73912093
Element set:    0419
Inclination:      098.4850 deg
RA of node:       200.7514 deg
Eccentricity:    0.0011492
Arg of perigee:   199.2569 deg
Mean anomaly:     160.8169 deg
Mean motion:   14.24063542 rev/day
Decay rate:       -4.2e-07 rev/day^2
Epoch rev:           35884
Checksum:              310

Satellite: NOAA-18
Catalog number: 28654
Epoch time:      09140.68051831
Element set:    0906
Inclination:      098.9052 deg
RA of node:       084.1340 deg
Eccentricity:    0.0015312
Arg of perigee:   081.6195 deg
Mean anomaly:     278.6695 deg
Mean motion:   14.11259927 rev/day
Decay rate:       4.15e-06 rev/day^2
Epoch rev:           20607
Checksum:              309

Satellite: NOAA-19
Catalog number: 33591
Epoch time:      09141.71828647
Element set:     110
Inclination:      098.7450 deg
RA of node:       088.1670 deg
Eccentricity:    0.0013561
Arg of perigee:   322.1163 deg
Mean anomaly:     037.9523 deg
Mean motion:   14.10958212 rev/day
Decay rate:        5.1e-07 rev/day^2
Epoch rev:            1470
Checksum:              279

/EX
SB KEPS @ AMSAT  $ORB09141.M
Orbital Elements  09141.MISC

HR AMSAT ORBITAL ELEMENTS FOR MANNED AND MISCELLANEOUS SATELLITES
FROM WA5QGD FORT WORTH,TX May 21, 2009
Send Subscribe/unsubscribe to KEPS at 
http://www.amsat.org/mailman/listinfo/keps
BID: ORB09141.M
TO ALL RADIO AMATEURS BT

Satellite: HUBBLE
Catalog number: 20580
Epoch time:      09140.71505625
Element set:    0396
Inclination:      028.4708 deg
RA of node:       281.5909 deg
Eccentricity:    0.0003273
Arg of perigee:   356.0951 deg
Mean anomaly:     003.9607 deg
Mean motion:   15.00807701 rev/day
Decay rate:      3.525e-05 rev/day^2
Epoch rev:           84572
Checksum:              288

Satellite: ISS
Catalog number: 25544
Epoch time:      09140.86485477
Element set:    0889
Inclination:      051.6396 deg
RA of node:       087.0576 deg
Eccentricity:    0.0009718
Arg of perigee:   025.8019 deg
Mean anomaly:     014.7413 deg
Mean motion:   15.72927264 rev/day
Decay rate:     1.1891e-04 rev/day^2
Epoch rev:           60165
Checksum:              331

Satellite: CO-58
Catalog number: 28895
Epoch time:      09141.74285470
Element set:     307
Inclination:      098.0618 deg
RA of node:       033.0951 deg
Eccentricity:    0.0018938
Arg of perigee:   072.6282 deg
Mean anomaly:     287.6963 deg
Mean motion:   14.59767299 rev/day
Decay rate:      -1.37e-06 rev/day^2
Epoch rev:           18987
Checksum:              371

